Tracking 30923 objects as of 1-Jul-2025
HD Live streaming from Space Station
objects crossing your sky now

SL-16 DEB

Track SL-16 DEB now!
10-day predictions


NORAD ID: 22357
Int'l Code: 1992-093AW
Perigee: 466.2 km
Apogee: 508.8 km
Inclination: 70.8 °
Period: 94.2 minutes
Semi major axis: 6858 km
RCS: 0.0561 m2 (small)
Launch date: December 25, 1992
Source: Commonwealth of Independent States (former USSR) (CIS)
Launch site: TYURATAM MISSILE AND SPACE COMPLEX (TTMTR)

Note: This is SATELLITE DEBRIS
Your satellite tracking list
Your tracking list is empty




NASA's NSSDC Master Catalog

Two Line Element Set (TLE):
1 22357U 92093AW  25181.75163737  .00025638  00000-0  91099-3 0  9993
2 22357  70.8484  38.4268 0031033 127.6547 232.7457 15.28472702737505
Source of the keplerian elements: AFSPC